Flag for Moldova Weather past 2 weeks in Chisinau, Moldova

Now
39 °F

Overcast.


Feels Like: 39 °F
Forecast: 27 / 42 °F
Wind: 2 mph from North

Location: Chisinau International Airport

Current Time: Dec 18, 2014 at 7:57:20 PM

Latest Report: Dec 18, 2014 at 7:30 PM


Visibility: 4 mi

Pressure: 30.04 "Hg

Humidity: 81%

Dew point: 34 °F

Location of ChisinauLocation

Historic Weather in Chisinau — Graph

°F

Chisinau temperature yesterday

Maximum temperature yesterday: 48 °F (at 3:00 PM)
Minimum temperature yesterday: 37 °F (at 9:00 PM)
Average temperature yesterday: 43 °F

Past Weeks' High & Low Weather Summary

 TemperatureHumidityPressure
High50 °F (Dec 13, 2:00 PM)93% (Dec 5, 6:00 PM)30.48 "Hg (Dec 5, 6:00 PM)
Low23 °F (Dec 3, 8:00 PM)50% (Dec 13, 2:00 PM)29.80 "Hg (Dec 17, 1:30 PM)
Average33 °F83%30.15 "Hg
* Reported Dec 3 6:00 PM — Dec 18 6:30 PM, Chisinau, Weather by CustomWeather, © 2014

Note: Actual official high and low records may vary slightly from our data, if they occured in-between our weather recording intervals... More about our weather records

Advertising

Chisinau weather history for previous 24 hours

 ConditionsComfort  
Time TempWeatherWind HumidityBarometerVisibility
6:30 PM
Dec 18
39 °FOvercast.5 mph75%30.04 "Hg4 mi
6:00 PM39 °FOvercast.2 mph75%30.01 "Hg4 mi
5:30 PM39 °FOvercast.5 mph75%30.01 "Hg4 mi
5:00 PM39 °FOvercast.No wind81%30.01 "HgN/A
4:30 PM39 °FOvercast.1 mph75%30.01 "HgN/A
4:00 PM39 °FLow clouds.5 mph75%30.01 "HgN/A
3:30 PM39 °FLow clouds.2 mph81%29.98 "HgN/A
3:00 PM39 °FLow clouds.2 mph81%29.98 "HgN/A
2:30 PM39 °FLow clouds.6 mph75%29.98 "HgN/A
2:00 PM39 °FLow clouds.3 mph75%29.98 "HgN/A
1:30 PM39 °FLow clouds.3 mph81%29.98 "HgN/A
1:00 PM39 °FLow clouds.3 mph75%29.98 "HgN/A
12:30 PM39 °FLow clouds.6 mph75%29.98 "HgN/A
12:00 PM39 °FLow clouds.7 mph75%29.98 "HgN/A
11:30 AM39 °FLow clouds.6 mph75%29.98 "HgN/A
11:00 AM37 °FLow clouds.5 mph81%29.98 "HgN/A
10:30 AM37 °FLow clouds.6 mph81%29.98 "HgN/A
10:00 AM37 °FLow clouds.6 mph87%29.98 "HgN/A
9:30 AM37 °FLow clouds.7 mph81%29.98 "Hg4 mi
9:00 AM37 °FLow clouds.6 mph87%29.98 "Hg5 mi
8:30 AM37 °FLow clouds.7 mph87%29.98 "Hg4 mi
8:00 AM37 °FLow clouds.7 mph87%29.98 "Hg4 mi
7:30 AM37 °FFog.5 mph87%29.95 "Hg3 mi
7:00 AM37 °FFog.6 mph87%29.95 "Hg3 mi
6:30 AM37 °FFog.3 mph87%29.95 "Hg3 mi
5:30 AM37 °FFog.8 mph87%29.92 "Hg2 mi
5:00 AM37 °FFog.5 mph87%29.92 "Hg1 mi
4:30 AM37 °FFog.5 mph87%29.92 "Hg1 mi
4:00 AM37 °FFog.7 mph87%29.92 "Hg2 mi
3:30 AM37 °FFog.8 mph87%29.92 "Hg2 mi
3:00 AM37 °FFog.7 mph87%29.92 "Hg2 mi
2:30 AM37 °FFog.9 mph87%29.92 "Hg3 mi
2:00 AM37 °FFog.7 mph87%29.92 "Hg3 mi
1:30 AM37 °FFog.6 mph87%29.92 "Hg2 mi
1:00 AM37 °FFog.7 mph87%29.92 "Hg2 mi
12:30 AM37 °FFog.7 mph87%29.92 "Hg2 mi
12:00 AM37 °FFog.7 mph87%29.92 "Hg1 mi
11:30 PM
Dec 17
37 °FFog.8 mph87%29.92 "Hg1 mi
11:00 PM39 °FFog.7 mph87%29.89 "Hg1 mi
10:30 PM39 °FFog.12 mph87%29.89 "Hg2 mi
10:00 PM39 °FFog.10 mph87%29.89 "Hg2 mi
9:30 PM39 °FFog.12 mph81%29.89 "Hg2 mi
9:00 PM37 °FFog.5 mph81%29.86 "Hg2 mi
8:30 PM39 °FClear.8 mph81%29.86 "Hg3 mi
8:00 PM41 °FClear.7 mph76%29.86 "Hg4 mi
7:30 PM41 °FClear.6 mph76%29.83 "Hg4 mi
7:00 PM41 °FClear.6 mph70%29.83 "Hg4 mi
Weather by CustomWeather, © 2014

See weather overviewHow to use our weather pages